Location: ???????
(56.2167°N, 38.0500°E)
Time: 03:08:48
(UTC+00:00)

IRIDIUM 114 - Pass Details

Date: 19 May 2025
Orbit: 776 x 779 km, 86.4° (Epoch: 14 June)

Event Time Altitude Azimuth Distance (km) Brightness Sun altitude
Exits shadow 22:31:44 15° 174° (S) 1,982 5.9 -12.5°
Maximum altitude 22:36:02 74° 92° (E) 815 4.5 -12.3°
Drops below altitude 10° 22:41:16 10° 8° (N) 2,345 8.3 -12.1°
Sets 22:43:38 0° 7° (N) 3,277 9.4 -12.0°
